Other Public Products
Issued by NWS Grand Forks, ND

Home | Current Version | Previous Version | Text Only | Print | Product List | Glossary Off
Versions: 1 2 3 4 5 6 7 8 9 10 11 12 13 14 15 16 17 18 19 20 21 22 23 24 25 26 27 28 29 30 31 32 33 34 35 36 37 38 39 40 41 42 43 44 45 46 47 48 49 50

000
FPUS83 KFGF 310610
OPUFGF
PRAIRIE TO PINES WEATHER ROUNDUP
NATIONAL WEATHER SERVICE EASTERN NORTH DAKOTA/GRAND FORKS ND
100 AM CDT MON AUG 31 2015

 **SATELLITE DATA USED TO AUGMENT SKY COVER AT AUTOMATED STATIONS**
 *****  WEATHER ACROSS EASTERN NORTH DAKOTA  *****

CITY           SKY/WX    TMP DP  RH WIND       PRES   REMARKS
GRAND FORKS    FAIR      72  67  84 S14       29.65F
6HR MIN TEMP:  72; 6HR MAX TEMP:  84;

GRAND FORKS AF FAIR      72  68  86 S9        29.66S
GRAND CITY NWS   N/A     70 N/A N/A S10         N/A
BUXTON         NOT AVBL
DEVILS LAKE    FAIR      72  64  78 S5        29.64S
6HR MIN TEMP:  72; 6HR MAX TEMP:  82;

FARGO          FAIR      71  62  73 S18G28    29.70F
6HR MIN TEMP:  71; 6HR MAX TEMP:  84;

WAHPETON ARPT  FAIR      64  59  82 SE13      29.76F
$$

 *****  WEATHER ACROSS CENTRAL AND WESTERN NORTH DAKOTA  *****

CITY           SKY/WX    TMP DP  RH WIND       PRES   REMARKS
JAMESTOWN      FAIR      70  67  90 S14       29.67S
6HR MIN TEMP:  70; 6HR MAX TEMP:  82;

BISMARCK       PTCLDY    66  60  81 E8        29.61F
6HR MIN TEMP:  65; 6HR MAX TEMP:  97;

MINOT          FAIR      68  51  54 W9        29.68R
6HR MIN TEMP:  65; 6HR MAX TEMP:  81;

MINOT AFB      FAIR      68  53  59 NW10      29.68R
6HR MIN TEMP:  63; 6HR MAX TEMP:  85;

GARRISON         N/A     65  54  67 N10       29.67R
6HR MIN TEMP:  64; 6HR MAX TEMP:  83;

WILLISTON      LGT RAIN  68  55  63 NE12      29.67F
6HR MIN TEMP:  65; 6HR MAX TEMP:  83; 6HR PCP: TRACE;

DICKINSON      CLOUDY    67  51  56 NW12      29.76R
6HR MIN TEMP:  67; 6HR MAX TEMP:  84; 6HR PCP: TRACE;

HETTINGER      MOCLDY    68  54  60 N5        29.70F HAZE
6HR MIN TEMP:  68; 6HR MAX TEMP:  93;

$$

 *****  OTHER OBSERVATIONS NORTHEAST NORTH DAKOTA  *****

CITY           SKY/WX    TMP DP  RH WIND       PRES   REMARKS
WALHALLA       FAIR      75  72  88 MISG      29.62F
LANGDON        FAIR      72  68  88 SW9       29.66F
CAVALIER       FAIR      72  66  83 S6        29.63S
GRAFTON        FAIR      72  72 100 S9        29.65S
CANDO          NOT AVBL
FORT TOTTEN      N/A     72  69  89 S7        29.95
ROLLA          FAIR      63  57  82 CALM      29.68R
RUGBY          FAIR      63  63 100 E7        29.64F FOG
 ***** THE ABOVE OBSERVATIONS ARE NON NWS ARE NOT QUALITY
        CONTROLLED AND MAY MIS-REPORT RAIN FOR SNOW...
$$

 *****  OTHER OBSERVATIONS SOUTHEAST NORTH DAKOTA *****

CITY           SKY/WX    TMP DP  RH WIND       PRES   REMARKS
COOPERSTOWN    NOT AVBL
VALLEY CITY    MOCLDY    72  72 100 S20G26    29.69S
OAKES            N/A     70  70 100 S22       29.71F
GWINNER        FAIR      72  64  78 S17       29.72F
BUFFALO        NOT AVBL
WYNDMERE         N/A     66  63  88 SE9         N/A
 ***** THE ABOVE OBSERVATIONS ARE NON NWS ARE NOT QUALITY
       CONTROLLED AND MAY MIS-REPORT RAIN FOR SNOW...
$$

  *****  WEATHER ACROSS NORTHERN MINNESOTA  *****

CITY           SKY/WX    TMP DP  RH WIND       PRES   REMARKS
FLAG ISLAND    FAIR      70  66  88 S9        29.69S
WARROAD        FAIR      72  66  83 S10       29.70S
ROSEAU         FAIR      72  64  78 S13       29.69F
HALLOCK        FAIR      73  70  88 S14       29.64S
THF RVR FALLS  FAIR     N/A N/A N/A S10       29.70F
HALSTAD        NOT AVBL
FOSSTON        FAIR      66  59  77 S10       29.75F
BAUDETTE       FAIR      69  66  90 S8        29.73F
6HR MIN TEMP:  69; 6HR MAX TEMP:  79;

WASKISH        FAIR      70  64  83 S7        29.76S
CROOKSTON      FAIR      72  64  78 S17       29.70S
$$
  *****  WEATHER ACROSS CENTRAL AND WEST MINNESOTA  *****

CITY           SKY/WX    TMP DP  RH WIND       PRES   REMARKS
BEMIDJI        FAIR      68  64  85 S9        29.79S
PARK RAPIDS      N/A     68  62  81 S10       29.81F
6HR MIN TEMP:  68; 6HR MAX TEMP:  79;

WADENA         FAIR      66  63  88 S9        29.82S
DETROIT LAKES  FAIR      70  61  73 S10       29.80S
MOORHEAD       FAIR      70  63  78 S17       29.73F
FERGUS FALLS   FAIR      66  61  82 S13       29.79S
ELBOW LAKE     FAIR      66  62  86 S15G21    29.81S
6HR MIN TEMP:  66; 6HR MAX TEMP:  76;

MORRIS MN      FAIR      64  63  94 SE10      29.82S FOG
STAPLES        FAIR      66  64  94 S10       29.85S
WHEATON        FAIR      63  59  88 S9        29.80S
$$
  *****  WEATHER ELSEWHERE ACROSS MINNESOTA  *****

CITY           SKY/WX    TMP DP  RH WIND       PRES   REMARKS
DULUTH         FAIR      66  64  93 SW9       29.90S
6HR MIN TEMP:  66; 6HR MAX TEMP:  76;

INTRNTL FALLS  FAIR      69  66  90 S3        29.77F
6HR MIN TEMP:  68; 6HR MAX TEMP:  79;

ELY            FAIR      66  63  88 SW9       29.87S
CLOQUET        FAIR      66  64  94 S8        29.90S
BRAINERD       FAIR      67  65  93 S13       29.87S
6HR MIN TEMP:  67; 6HR MAX TEMP:  75;

HIBBING        FAIR      64  62  93 SE3       29.87S
6HR MIN TEMP:  64; 6HR MAX TEMP:  78;

ALEXANDRIA     FAIR      67  62  84 S12       29.86F
6HR MIN TEMP:  67; 6HR MAX TEMP:  78;

SAINT CLOUD    MOCLDY    66  65  96 S10       29.89S
6HR MIN TEMP:  66; 6HR MAX TEMP:  76;

MINNEAPOLIS    MOCLDY    67  63  87 SE6       29.93S
6HR MIN TEMP:  67; 6HR MAX TEMP:  77;

$$

  *****  WEATHER ACROSS SOUTH DAKOTA  *****

CITY           SKY/WX    TMP DP  RH WIND       PRES   REMARKS
SIOUX FALLS    FAIR      67  64  90 S14       29.90S
6HR MIN TEMP:  67; 6HR MAX TEMP:  72;

BROOKINGS      MOCLDY    66  63  88 S15       29.90S
WATERTOWN      FAIR      65  62  90 S12       29.84R
6HR MIN TEMP:  65; 6HR MAX TEMP:  75;

HURON          CLEAR     67  65  93 S13       29.80R
6HR MIN TEMP:  67; 6HR MAX TEMP:  79;

SISSETON         N/A     70  60  70 S14       29.75S
ABERDEEN       CLEAR     69  64  84 S22G30    29.73F
6HR MIN TEMP:  69; 6HR MAX TEMP:  81;

MITCHELL       CLEAR     68  66  93 S13       29.83S
PIERRE         CLEAR     71  58  63 SE10      29.70S
6HR MIN TEMP:  71; 6HR MAX TEMP:  91;

MOBRIDGE       MOCLDY    75  60  59 SE9       29.64F
RAPID CITY     MOCLDY    68  57  68 S7        29.78R
6HR MIN TEMP:  66; 6HR MAX TEMP:  86; 6HR PCP: TRACE;

$$

  *****  SOME WEATHER IN NEARBY STATES *****

CITY           SKY/WX    TMP DP  RH WIND       PRES   REMARKS
GLASGOW MT     LGT RAIN  62  59  90 W15       29.83R
6HR MIN TEMP:  61; 6HR MAX TEMP:  78; 6HR PCP:  0.08;

GREAT FALLS MT MOCLDY    55  35  47 SW20      29.91S
6HR MIN TEMP:  55; 6HR MAX TEMP:  69;

CHEYENNE WY    MOCLDY    67  46  47 W6        30.07F
6HR MIN TEMP:  67; 6HR MAX TEMP:  85;

SCOTTSBLUFF NE CLOUDY    80  47  31 SW8       29.92R
6HR MIN TEMP:  73; 6HR MAX TEMP:  91; 6HR PCP: TRACE;

OMAHA NE       FAIR      68  66  93 S8        29.97S
6HR MIN TEMP:  66; 6HR MAX TEMP:  75;

DES MOINES IA  FAIR      69  65  86 SE6       29.99S
6HR MIN TEMP:  69; 6HR MAX TEMP:  77;

DAVENPORT IA   FAIR      62  60  93 CALM      30.03S
6HR MIN TEMP:  62; 6HR MAX TEMP:  72;

CHICAGO IL     FAIR      63  62  97 SE3       30.04S FOG
6HR MIN TEMP:  62; 6HR MAX TEMP:  72;

EAU CLAIRE WI  FAIR      62  60  93 S5        29.97R
6HR MIN TEMP:  62; 6HR MAX TEMP:  73;

LA CROSSE WI   FAIR      64  63  96 SE3       29.99S FOG
6HR MIN TEMP:  63; 6HR MAX TEMP:  73;

$$

  *****  SOME NATIONAL WEATHER *****

CITY           SKY/WX    TMP DP  RH WIND       PRES   REMARKS
LA GUARDIA NY  MOCLDY    80  66  62 SW9       30.02S
6HR MIN TEMP:  76; 6HR MAX TEMP:  85; 6HR PCP:  0.08;




USA.gov is the U.S. government's official web portal to all federal, state and local government web resources and services.